Weather History for KBID - November, 2013

Change the Weather History Date:

Wednesday, November 27, 2013

  Actual Average Record
Temperature  
Mean Temperature 50 °F -  
Max Temperature 60 °F 49 °F 60 °F (1999)
Min Temperature 39 °F 38 °F 19 °F (1949)
Degree Days  
Heating Degree Days 16    
Moisture  
Dew Point 48 °F    
Average Humidity 86    
Maximum Humidity 94    
Minimum Humidity 65    
Precipitation  
Precipitation 1.86 in - - ()
Sea Level Pressure  
Sea Level Pressure 29.46 in    
Wind  
Wind Speed 20 mph (SW)    
Max Wind Speed 37 mph    
Max Gust Speed 51 mph    
Visibility 6 miles    
Events      
Averages and records for this station are not official NWS values.
T = Trace of Precipitation, MM = Missing Value Source: NWS Daily Summary

Daily Weather History Graph

Daily Weather History Graph

Search for Another Location

Airport or City:

Trip Planner

Search our weather history database for the weather conditions in past years. The results will help you decide how hot, cold, wet, or windy it might be!

Date:

Astronomy

Nov. 27, 2013 Rise Set
Actual Time 6:48 AM EST 4:19 PM EST
Civil Twilight 6:17 AM EST 4:49 PM EST
Nautical Twilight 5:43 AM EST 5:24 PM EST
Astronomical Twilight 5:10 AM EST 5:57 PM EST
Moon 12:44 AM EST (11/27) 12:58 PM EST (11/27)
Length of Visible Light 10h 32m
Length of Day
9h 31m
Waning Crescent, 32% of the Moon is Illuminated
Nov 27
Waning Crescent
Dec 2
New
Dec 9
First Quarter
Dec 17
Full
Dec 25
Last Quarter

Hourly Weather History & Observations

Time (EST) Temp. Windchill Dew Point Humidity Pressure Visibility Wind Dir Wind Speed Gust Speed Precip Events Conditions
12:15 AM 53.6 °F - 48.2 °F 82% 29.96 in 7.0 mi SE 15.0 mph - 0.03 in   Overcast
12:35 AM 53.6 °F - 50.0 °F 88% 29.94 in 9.0 mi SE 15.0 mph 20.7 mph 0.07 in   Overcast
12:55 AM 53.6 °F - 51.8 °F 94% 29.91 in 8.0 mi SE 17.3 mph 23.0 mph 0.10 in   Mostly Cloudy
1:15 AM 53.6 °F - 51.8 °F 94% 29.88 in 10.0 mi SE 18.4 mph 25.3 mph 0.02 in   Mostly Cloudy
1:35 AM 53.6 °F - 50.0 °F 88% 29.87 in 10.0 mi SE 20.7 mph 27.6 mph 0.03 in   Mostly Cloudy
1:55 AM 53.6 °F - 51.8 °F 94% 29.84 in 10.0 mi SE 20.7 mph 31.1 mph 0.03 in   Overcast
2:15 AM 55.4 °F - 51.8 °F 88% 29.82 in 10.0 mi SE 23.0 mph 29.9 mph 0.01 in   Overcast
2:35 AM 55.4 °F - 51.8 °F 88% 29.78 in 7.0 mi SE 29.9 mph 35.7 mph 0.05 in   Mostly Cloudy
2:55 AM 55.4 °F - 51.8 °F 88% 29.76 in 10.0 mi SE 23.0 mph 33.4 mph 0.05 in   Mostly Cloudy
3:15 AM 55.4 °F - 51.8 °F 88% 29.72 in 10.0 mi SE 25.3 mph 38.0 mph 0.01 in   Overcast
3:35 AM 55.4 °F - 51.8 °F 88% 29.69 in 9.0 mi SE 28.8 mph 38.0 mph 0.01 in   Overcast
3:55 AM 55.4 °F - 51.8 °F 88% 29.65 in 5.0 mi SSE 27.6 mph 41.4 mph 0.02 in   Overcast
4:15 AM 55.4 °F - 51.8 °F 88% 29.62 in 5.0 mi SE 29.9 mph 40.3 mph 0.01 in   Mostly Cloudy
4:35 AM 55.4 °F - 53.6 °F 94% 29.60 in 5.0 mi SSE 28.8 mph 39.1 mph 0.01 in   Overcast
4:55 AM - - - N/A% 29.57 in 4.0 mi SSE 34.5 mph 47.2 mph 0.02 in   Overcast
5:15 AM - - - N/A% 29.55 in 7.0 mi SSE 36.8 mph 50.6 mph N/A   Overcast
5:35 AM - - - N/A% 29.54 in 7.0 mi SSE 35.7 mph 50.6 mph N/A   Overcast
5:55 AM - - - N/A% 29.53 in 5.0 mi SSE 33.4 mph 42.6 mph N/A   Overcast
6:15 AM - - - N/A% 29.51 in 5.0 mi SSE 31.1 mph 43.7 mph N/A   Overcast
6:35 AM - - - N/A% 29.49 in 4.0 mi SSE 31.1 mph 50.6 mph N/A   Overcast
6:55 AM - - - N/A% 29.48 in 4.0 mi South 29.9 mph 40.3 mph 0.01 in   Overcast
7:15 AM 59.0 °F - 55.4 °F 88% 29.48 in 2.0 mi South 28.8 mph 38.0 mph 0.02 in   Overcast
7:35 AM 59.0 °F - 55.4 °F 88% 29.45 in 1.8 mi South 29.9 mph 38.0 mph 0.07 in   Overcast
7:55 AM - - - N/A% 29.43 in 1.2 mi South 32.2 mph 46.0 mph 0.13 in   Overcast
8:15 AM 60.8 °F - 57.2 °F 88% 29.44 in 2.0 mi South 31.1 mph 43.7 mph 0.01 in   Overcast
8:35 AM 60.8 °F - 55.4 °F 82% 29.44 in 1.8 mi South 32.2 mph 42.6 mph 0.03 in   Overcast
8:55 AM 60.8 °F - 57.2 °F 88% 29.45 in 2.0 mi South 26.5 mph 38.0 mph 0.10 in   Overcast
9:15 AM 59.0 °F - 55.4 °F 88% 29.45 in 1.5 mi South 24.2 mph 36.8 mph 0.04 in   Overcast
9:35 AM 59.0 °F - 55.4 °F 88% 29.43 in 2.5 mi South 19.6 mph 31.1 mph 0.06 in   Overcast
9:55 AM 59.0 °F - 55.4 °F 88% 29.42 in 1.5 mi South 16.1 mph 20.7 mph 0.06 in   Overcast
10:15 AM 60.8 °F - 57.2 °F 88% 29.41 in 2.0 mi SSW 16.1 mph 23.0 mph 0.09 in   Overcast
10:35 AM 60.8 °F - 57.2 °F 88% 29.38 in 1.8 mi SSW 19.6 mph 25.3 mph 0.18 in   Overcast
10:55 AM 60.8 °F - 57.2 °F 88% 29.38 in 2.0 mi SW 12.7 mph - 0.27 in   Overcast
11:15 AM 60.8 °F - 57.2 °F 88% 29.36 in 3.0 mi SW 15.0 mph 19.6 mph 0.25 in   Overcast
11:35 AM 60.8 °F - 57.2 °F 88% 29.34 in 3.0 mi West 16.1 mph 19.6 mph 0.39 in   Overcast
11:55 AM 59.0 °F - 55.4 °F 88% 29.35 in 3.0 mi SW 12.7 mph - 0.51 in   Overcast
12:15 PM 57.2 °F - 55.4 °F 94% 29.33 in 1.8 mi SW 11.5 mph - 0.05 in   Overcast
12:35 PM 57.2 °F - 55.4 °F 94% 29.31 in 2.5 mi WSW 11.5 mph - 0.06 in   Overcast
12:55 PM 57.2 °F - 55.4 °F 94% 29.31 in 4.0 mi WSW 11.5 mph - 0.14 in   Overcast
1:15 PM 57.2 °F - 53.6 °F 88% 29.28 in 3.0 mi SSW 4.6 mph - 0.02 in   Overcast
1:35 PM 55.4 °F - 53.6 °F 94% 29.27 in 1.0 mi South 9.2 mph - 0.04 in   Overcast
1:55 PM 57.2 °F - 53.6 °F 88% 29.27 in 0.5 mi South 9.2 mph - 0.04 in   Overcast
2:15 PM 57.2 °F - 53.6 °F 88% 29.29 in 1.0 mi SW 12.7 mph 19.6 mph 0.03 in   Overcast
2:35 PM 55.4 °F - 53.6 °F 94% 29.30 in 2.5 mi WSW 12.7 mph - 0.05 in   Overcast
2:55 PM 53.6 °F - 51.8 °F 94% 29.30 in 4.0 mi SW 13.8 mph - 0.08 in   Overcast
3:15 PM 53.6 °F - 51.8 °F 94% 29.28 in 4.0 mi WSW 10.4 mph - 0.05 in   Overcast
3:35 PM 53.6 °F - 50.0 °F 88% 29.27 in 3.0 mi WSW 9.2 mph - 0.05 in   Overcast
3:55 PM 51.8 °F - 50.0 °F 94% 29.24 in 4.0 mi West 8.1 mph - 0.06 in   Overcast
4:15 PM 51.8 °F - 48.2 °F 88% 29.23 in 4.0 mi West 6.9 mph - 0.06 in   Overcast
4:35 PM 51.8 °F - 48.2 °F 88% 29.24 in 4.0 mi WNW 10.4 mph - 0.08 in   Overcast
4:55 PM 51.8 °F - 46.4 °F 82% 29.25 in 7.0 mi NNW 9.2 mph - 0.16 in   Overcast
5:15 PM 51.8 °F - 48.2 °F 88% 29.25 in 8.0 mi NNW 5.8 mph - 0.02 in   Overcast
5:35 PM 50.0 °F - 46.4 °F 87% 29.27 in 7.0 mi NW 6.9 mph - 0.03 in   Overcast
5:55 PM 48.2 °F - 46.4 °F 93% 29.27 in 8.0 mi NW 5.8 mph - 0.05 in   Overcast
6:15 PM 48.2 °F - 44.6 °F 87% 29.27 in 10.0 mi WNW 10.4 mph - N/A   Overcast
6:35 PM 46.4 °F 41.9 °F 44.6 °F 93% 29.23 in 10.0 mi NNW 9.2 mph - 0.01 in   Overcast
6:55 PM 46.4 °F 41.1 °F 42.8 °F 87% 29.27 in 10.0 mi NW 11.5 mph 21.9 mph 0.01 in   Overcast
7:15 PM 44.6 °F 37.8 °F 39.2 °F 81% 29.30 in 10.0 mi NW 15.0 mph 25.3 mph N/A   Overcast
7:35 PM 42.8 °F 33.3 °F 37.4 °F 81% 29.34 in 10.0 mi WNW 24.2 mph 39.1 mph N/A   Overcast
7:55 PM 42.8 °F 34.3 °F 37.4 °F 81% 29.37 in 3.0 mi WNW 19.6 mph 39.1 mph 0.01 in   Overcast
8:15 PM 41.0 °F 32.2 °F 37.4 °F 87% 29.37 in 8.0 mi WNW 18.4 mph 34.5 mph 0.01 in   Overcast
8:35 PM 41.0 °F 32.2 °F 35.6 °F 81% 29.40 in 10.0 mi WNW 18.4 mph 31.1 mph 0.01 in   Overcast
8:55 PM 39.2 °F 29.8 °F 33.8 °F 81% 29.39 in 10.0 mi NW 18.4 mph 29.9 mph 0.01 in   Overcast
9:15 PM 39.2 °F 30.2 °F 33.8 °F 81% 29.41 in 10.0 mi NW 17.3 mph 28.8 mph N/A   Overcast
9:35 PM 39.2 °F 29.8 °F 32.0 °F 75% 29.42 in 10.0 mi NW 18.4 mph 25.3 mph N/A   Overcast
9:55 PM 39.2 °F 30.2 °F 32.0 °F 75% 29.44 in 10.0 mi WNW 17.3 mph 26.5 mph N/A   Overcast
10:15 PM 39.2 °F 31.2 °F 30.2 °F 70% 29.47 in 10.0 mi WNW 13.8 mph 24.2 mph N/A   Overcast
10:35 PM 39.2 °F 30.2 °F 30.2 °F 70% 29.48 in 10.0 mi NW 17.3 mph 26.5 mph N/A   Overcast
10:55 PM 39.2 °F 30.2 °F 30.2 °F 70% 29.49 in 10.0 mi WNW 17.3 mph 24.2 mph N/A   Overcast
11:15 PM 39.2 °F 30.2 °F 28.4 °F 65% 29.52 in 10.0 mi WNW 17.3 mph 27.6 mph N/A   Overcast
11:35 PM 39.2 °F 31.2 °F 28.4 °F 65% 29.54 in 10.0 mi WNW 13.8 mph 29.9 mph N/A   Overcast
11:55 PM 39.2 °F 29.3 °F 28.4 °F 65% 29.56 in 10.0 mi WNW 20.7 mph 28.8 mph N/A   Mostly Cloudy